Tracking 35055 objects as of 18-Aug-2026
HD Live streaming from Space Station
objects crossing your sky now

QIANFAN-224

Track QIANFAN-224 now!
10-day predictions
QIANFAN-224 is classified as:


NORAD ID: 69853
Int'l Code: 2026-155F
Launch date: July 5, 2026
Source: People's Republic of China (PRC)
Launch site: Wenchang Satellite Launch Center (WSC)
Your satellite tracking list
Your tracking list is empty




NASA's NSSDC Master Catalog

Two Line Element Set (TLE):
1 69853U 26155F   26230.44397654  .00000036  00000-0  17405-4 0  9995
2 69853  89.0033  57.1223 0032942 107.6542 252.8234 13.91867179  6218
Source of the keplerian elements: AFSPC